{"data":{"norad_id":64564,"intl_designator":"2025-135AN","name":"TIME FLIES","alt_names":[],"object_type":"PAYLOAD","status":"ACTIVE","operator":null,"country":"US","launch_date":"2025-06-23","launch_site_code":"AFWTR","launch_vehicle":null,"mission":null,"orbit_class":"UNKNOWN","rcs_meters":null,"size_class":null,"mass_kg":null,"dimensions":null,"purposes":[],"wikipedia_slug":null,"has_3d_model":false,"image_url":null,"decayed_at":null,"tle_current":{"epoch":"2026-09-21T19:46:10.043904Z","epoch_age_seconds":67903,"freshness":"FRESH","line1":"1 64564U 25135AN  26264.82372736  .00002216  00000+0  20547-3 0  9990","line2":"2 64564  97.7786  18.4603 0001262   1.1145 359.0078 14.95482148 68345","mean_motion":14.95482148,"eccentricity":0.0001262,"inclination_deg":97.7786,"raan_deg":18.4603,"arg_perigee_deg":1.1145,"mean_anomaly_deg":359.0078,"bstar":0.00020547,"rev_number":6834,"period_min":96.29001602766,"perigee_km":579.99838346176,"apogee_km":581.75483849717,"semimajor_km":6959.0136109795,"source":"CELESTRAK","updated_at":"2026-09-22T09:00:29.848663Z"}}}